Location: Mason Neck State Park
(38.6428°N, 77.1981°W)
Time: 23:38:01
(UTC-04:00)

ISS - Visible Passes

Search period start: 24 July 2014 00:00
Search period end: 03 August 2014 00:00
Orbit: 411 x 419 km, 51.6° (Epoch: 24 July)

Date Brightness Start Highest point End Pass type
(mag) Time Alt. Az. Time Alt. Az. Time Alt. Az.
24 Jul -0.9 03:01:31 23° N 03:01:31 23° N 03:03:29 10° NNE visible
24 Jul -0.1 04:37:50 10° NNW 04:38:12 10° N 04:38:35 10° N visible
25 Jul 0.0 02:14:23 14° NE 02:14:23 14° NE 02:14:54 10° NE visible
25 Jul -0.3 03:47:44 10° NW 03:49:07 12° NNW 03:50:31 10° N visible
26 Jul -0.5 03:00:08 15° NNW 03:00:08 15° NNW 03:02:10 10° NNE visible
27 Jul 0.0 02:13:02 14° NNE 02:13:02 14° NNE 02:13:46 10° NNE visible
27 Jul -0.2 05:25:21 10° NNW 05:26:56 13° NNE 05:28:31 10° NE visible
28 Jul 0.0 02:59:18 10° NNW 02:59:57 10° N 03:00:36 10° N visible
28 Jul 0.1 04:37:11 10° N 04:37:57 11° N 04:38:43 10° NNE visible
29 Jul 0.2 02:11:46 12° N 02:11:46 12° N 02:12:30 10° NNE visible
29 Jul -0.5 05:24:06 10° NNW 05:26:44 21° NNE 05:29:22 10° ENE visible
30 Jul -0.2 04:35:47 10° NNW 04:37:54 16° NNE 04:40:01 10° ENE visible
31 Jul 0.0 03:47:33 10° N 03:49:02 12° NNE 03:50:30 10° NE visible
31 Jul -1.9 05:23:13 10° NW 05:26:28 44° NE 05:29:42 10° ESE visible
01 Aug 0.3 02:59:35 10° N 03:00:09 10° N 03:00:43 10° NNE visible
01 Aug -1.0 04:34:49 10° NNW 04:37:47 28° NNE 04:40:45 10° E visible
01 Aug -1.4 21:17:22 10° S 21:18:24 14° SSE 21:18:24 14° SSE visible
02 Aug -0.5 03:46:31 10° NNW 03:49:05 20° NNE 03:51:38 10° ENE visible
02 Aug -3.3 05:22:44 10° WNW 05:26:05 63° SW 05:29:24 10° SE visible
02 Aug -3.4 22:04:03 10° SW 22:07:23 89° NW 22:09:43 18° NE visible
02 Aug 0.0 23:42:18 10° WNW 23:42:54 13° NW 23:42:54 13° NW visible
